This demonstration page uses our WeatherBlox Daily Observations layout. Learn more.

39.92423, -83.80882

Hourly Observations for January 1, 2018

Temp ( °F °C ) Dew Point ( °F °C ) Humidity (%) Winds ( mph kmh ) Pressure ( in mb ) Visibility ( mi km ) Precip ( " mm )
12:56 am 00:56 Clear -5 -20.6 -8 -22.2 87 87 W 6 9 30.57 1035 10 16.0934 0 0
1:56 am 01:56 Clear -4 -20 -7 -21.7 86 86 W 9 15 30.58 1036 10 16.0934 0 0
2:03 am 02:03 Mostly Clear -2 -19 -8 -22 77 77 WNW 13 20 30.65 1038 10 16.0934 0 0
2:15 am 02:15 Mostly Cloudy 0 -18 -2 -19 92 92 W 12 19 30.62 1037 10 16.0934 0 0
2:56 am 02:56 Cloudy 1 -17.2 -2 -18.9 87 87 WNW 13 20 30.59 1036 10 16.0934 0 0
3:56 am 03:56 Cloudy 2 -16.7 -2 -18.9 83 83 W 8 13 30.59 1036 9 14.48406 0 0.0254
4:12 am 04:12 Cloudy 1 -17 0 -18 92 92 W 9 15 30.62 1037 10 16.0934 0 0
4:56 am 04:56 Cloudy 3 -16.1 -1 -18.3 83 83 WNW 9 15 30.59 1036 9 14.48406 0 0.0254
5:03 am 05:03 Cloudy with Light Snow 3 -16 0 -18 85 85 WNW 10 17 30.65 1038 7 11.26538 0 0.0254
5:56 am 05:56 Cloudy with Light Snow 4 -15.6 1 -17.2 88 88 WNW 8 13 30.6 1036 8 12.87472 0 0.0254
6:31 am 06:31 Mostly Cloudy with Scattered Snow Showers 3 -16 0 -18 85 85 W 12 19 30.65 1038 9 14.48406 0 0.0254
6:41 am 06:41 Mostly Cloudy 1 -17 -2 -19 85 85 W 10 17 30.65 1038 9 14.48406 0 0.0254
6:56 am 06:56 Mostly Clear 0 -17.8 -4 -20 83 83 W 9 15 30.62 1037 10 16.0934 0 0.0254
7:56 am 07:56 Clear -4 -20 -8 -22.2 83 83 W 8 13 30.65 1038 10 16.0934 0 0
8:56 am 08:56 Sunny 0 -17.8 -3 -19.4 87 87 W 10 17 30.66 1038 10 16.0934 0 0
9:56 am 09:56 Sunny 5 -15 0 -17.8 79 79 W 10 17 30.67 1039 10 16.0934 0 0
10:56 am 10:56 Sunny 8 -13.3 1 -17.2 73 73 W 14 22 30.69 1039 10 16.0934 0 0.0254
11:56 am 11:56 Sunny 12 -11.1 1 -17.2 61 61 WNW 12 19 30.68 1039 10 16.0934 0 0
12:56 pm 12:56 Sunny with Light Snow 12 -11.1 0 -17.8 58 58 WNW 15 24 30.67 1039 9 14.48406 0 0.0254
1:56 pm 13:56 Sunny with Light Snow 13 -10.6 -1 -18.3 54 54 WNW 15 24 30.65 1038 9 14.48406 0 0.0254
2:56 pm 14:56 Sunny 11 -11.7 -1 -18.3 58 58 WNW 14 22 30.65 1038 10 16.0934 0 0.0254
3:56 pm 15:56 Sunny 10 -12.2 -1 -18.3 61 61 WNW 14 22 30.66 1038 10 16.0934 0 0
4:56 pm 16:56 Sunny 6 -14.4 -4 -20 63 63 W 9 15 30.68 1039 10 16.0934 0 0
6:56 pm 18:56 Clear 5 -15 1 -17.2 83 83 NW 7 11 30.55 1034 10 16.0934 0 0
7:56 pm 19:56 Partly Cloudy -6 -21.1 -11 -23.9 78 78 W 12 19 30.73 1041 10 16.0934 0 0
8:08 pm 20:08 Mostly Cloudy -4 -20 -9 -23 77 77 W 10 17 30.77 1042 10 16.0934 0 0
8:56 pm 20:56 Cloudy -3 -19.4 -10 -23.3 71 71 W 14 22 30.73 1041 10 16.0934 0 0
9:56 pm 21:56 Cloudy -3 -19.4 -11 -23.9 68 68 W 12 19 30.73 1041 10 16.0934 0 0
10:56 pm 22:56 Cloudy with Light Snow -3 -19.4 -11 -23.9 68 68 WNW 9 15 30.73 1041 9 14.48406 0 0.0254
11:56 pm 23:56 Cloudy with Light Snow -3 -19.4 -11 -23.9 68 68 W 9 15 30.73 1041 9 14.48406 0 0.0254

Powered by AerisWeather